Location: Ravensburg
(48.5621°N, 13.4088°E)
Time: 06:17:07
(UTC+01:00)

OTV 5 (USA 277) - Visible Passes

Search period start: 20 January 2018 00:00
Search period end: 30 January 2018 00:00
Orbit: 404 x 417 km, 43.0° (Epoch: 07 September)

Date Brightness Start Highest point End Pass type
(mag) Time Alt. Az. Time Alt. Az. Time Alt. Az.
23 Jan ? 19:17:47 10° SSW 19:18:11 12° SSW 19:18:11 12° SSW visible
24 Jan ? 18:27:26 10° S 18:29:13 14° SSE 18:29:40 13° SE visible
25 Jan ? 17:38:00 10° SSE 17:38:21 10° SSE 17:38:43 10° SE visible
25 Jan ? 19:12:07 10° SW 19:13:51 21° SSW 19:13:51 21° SSW visible
26 Jan ? 18:21:23 10° SW 18:24:02 21° SSE 18:25:15 18° SE visible
26 Jan ? 19:57:49 10° WSW 19:58:01 11° WSW 19:58:01 11° WSW visible
27 Jan ? 17:30:47 10° SSW 17:33:07 18° SSE 17:35:27 10° ESE visible
27 Jan ? 19:06:52 10° WSW 19:09:24 29° SSW 19:09:24 29° SSW visible
28 Jan ? 18:15:57 10° SW 18:18:55 29° S 18:20:46 17° ESE visible
28 Jan ? 19:52:51 10° WSW 19:53:32 14° WSW 19:53:32 14° WSW visible
29 Jan ? 19:01:49 10° WSW 19:04:50 30° S 19:04:55 30° S visible
